Home > Weather > Stassfurt > Past weeks

Flag for Germany Past Weather in Stassfurt, Saxony-Anhalt, Germany — Yesterday and Last 2 Weeks

Now
84 °F

Passing clouds.


Feels Like: 82 °F
Forecast: 67 / 89 °F
Wind: 10 mph from South

Location: Leipzig-Schkeuditz

Current Time: Aug 26, 2016 at 12:24:46 PM

Latest Report: Aug 26, 2016 at 11:50 AM


Visibility: N/A

Pressure: 30.07 "Hg

Humidity: 33%

Dew Point: 52 °F

Location of StassfurtLocation

Past Weather in Stassfurt — Graph

°F

Stassfurt Temperature Yesterday

Maximum temperature yesterday: 90 °F (at 4:20 PM)
Minimum temperature yesterday: 57 °F (at 5:20 AM)
Average temperature yesterday: 74 °F

High & Low Weather Summary for the Past Weeks

 TemperatureHumidityPressure
High90 °F (Aug 25, 4:20 PM)100% (Aug 12, 8:20 PM)30.33 "Hg (Aug 12, 8:20 PM)
Low48 °F (Aug 18, 4:20 AM)24% (Aug 25, 4:50 PM)29.80 "Hg (Aug 18, 3:50 PM)
Average66 °F68%30.10 "Hg
* Reported Aug 11 11:20 AM — Aug 26 11:20 AM, Stassfurt, Weather by CustomWeather, © 2016

Note: Actual official high and low records may vary slightly from our data, if they occured in-between our weather recording intervals... More about our weather records

Advertising

Stassfurt Weather History for the Previous 24 Hours

Scroll right to see more
 ConditionsComfort  
Time TempWeatherWind HumidityBarometerVisibility
11:20 AM
Fri, Aug 26
84 °FPassing clouds.12 mph33%30.07 "HgN/A
10:50 AM81 °FSunny.12 mph37%30.07 "Hg10 mi
10:20 AM81 °FSunny.12 mph37%30.07 "Hg10 mi
9:50 AM79 °FSunny.10 mph42%30.07 "Hg10 mi
9:20 AM75 °FSunny.12 mph50%30.07 "Hg10 mi
8:50 AM72 °FSunny.10 mph53%30.07 "Hg10 mi
8:20 AM68 °FSunny.10 mph64%30.07 "Hg10 mi
7:50 AM68 °FSunny.10 mph64%30.07 "Hg10 mi
7:20 AM64 °FSunny.9 mph73%30.07 "Hg10 mi
6:50 AM63 °FClear.10 mph77%30.07 "Hg10 mi
6:20 AM63 °FClear.10 mph77%30.07 "Hg10 mi
5:50 AM63 °FClear.9 mph77%30.07 "Hg10 mi
5:20 AM61 °FClear.10 mph83%30.04 "Hg10 mi
4:50 AM63 °FClear.10 mph77%30.04 "Hg10 mi
4:20 AM63 °FClear.10 mph77%30.04 "Hg10 mi
3:50 AM61 °FPassing clouds.9 mph77%30.04 "HgN/A
3:20 AM61 °FClear.7 mph77%30.07 "Hg10 mi
2:50 AM63 °FClear.9 mph73%30.07 "Hg10 mi
2:20 AM63 °FClear.9 mph73%30.07 "Hg10 mi
1:50 AM63 °FClear.7 mph73%30.07 "Hg10 mi
1:20 AM66 °FClear.8 mph64%30.07 "Hg10 mi
12:50 AM66 °FClear.9 mph64%30.07 "Hg10 mi
12:20 AM68 °FClear.9 mph60%30.07 "Hg10 mi
11:50 PM
Thu, Aug 25
70 °FClear.10 mph57%30.07 "Hg10 mi
11:20 PM72 °FClear.9 mph53%30.07 "Hg10 mi
10:50 PM73 °FClear.9 mph50%30.07 "Hg10 mi
10:20 PM75 °FClear.10 mph47%30.07 "Hg10 mi
9:50 PM75 °FClear.12 mph50%30.07 "Hg10 mi
9:20 PM75 °FClear.12 mph50%30.07 "Hg10 mi
8:50 PM75 °FSunny.12 mph50%30.07 "Hg10 mi
8:20 PM77 °FSunny.12 mph47%30.07 "Hg10 mi
7:50 PM81 °FSunny.12 mph45%30.07 "Hg10 mi
7:20 PM82 °FSunny.14 mph42%30.07 "Hg10 mi
6:50 PM84 °FSunny.15 mph35%30.07 "Hg10 mi
6:20 PM86 °FSunny.14 mph31%30.07 "Hg10 mi
5:50 PM88 °FSunny.14 mph31%30.07 "Hg10 mi
5:20 PM88 °FPassing clouds.13 mph33%30.09 "HgN/A
4:50 PM90 °FPassing clouds.13 mph24%30.09 "HgN/A
4:20 PM90 °FPassing clouds.12 mph27%30.09 "HgN/A
3:50 PM88 °FPassing clouds.10 mph29%30.09 "HgN/A
3:20 PM88 °FPassing clouds.10 mph29%30.12 "HgN/A
2:50 PM88 °FPassing clouds.12 mph29%30.12 "HgN/A
2:20 PM86 °FPassing clouds.12 mph29%30.12 "HgN/A
1:50 PM86 °FPassing clouds.9 mph29%30.15 "HgN/A
1:20 PM84 °FSunny.13 mph31%30.15 "Hg10 mi
12:50 PM84 °FPassing clouds.10 mph33%30.15 "HgN/A
12:20 PM82 °FPassing clouds.13 mph35%30.15 "HgN/A
Weather by CustomWeather, © 2016

See weather overviewHow to use our weather pages